This is the latest recevied weather packets stored in our database for station/object WA6ODQ-13. If no packets are shown the sender has not sent any weather packets the latest 10 day(s).
| Time | Temp. | Humidity | Pressure | Rain* | Wind** | Luminosity | Snow |
|---|---|---|---|---|---|---|---|
| 1788388980 | 25° C | 47% | 1014.5 hPa | 0 mm | - | 477 W/m² | - |
| 1788388676 | 25° C | 48% | 1014.3 hPa | 0 mm | - | 505 W/m² | - |
| 1788388376 | 24.44° C | 48% | 1014.2 hPa | 0 mm | - | 449 W/m² | - |
| 1788388074 | 23.89° C | 50% | 1014.6 hPa | 0 mm | - | 463 W/m² | - |
| 1788387769 | 24.44° C | 50% | 1014.5 hPa | 0 mm | - | 372 W/m² | - |
| 1788387463 | 24.44° C | 52% | 1014.6 hPa | 0 mm | - | 327 W/m² | - |
| 1788387163 | 23.89° C | 53% | 1014.5 hPa | 0 mm | - | 510 W/m² | - |
| 1788386858 | 24.44° C | 53% | 1014.7 hPa | 0 mm | - | 306 W/m² | - |
| 1788386558 | 23.89° C | 53% | 1014.6 hPa | 0 mm | - | 494 W/m² | - |
| 1788386253 | 23.33° C | 56% | 1014.7 hPa | 0 mm | - | 485 W/m² | - |
| 1788385949 | 23.89° C | 55% | 1014.9 hPa | 0 mm | - | 314 W/m² | - |
| 1788385644 | 24.44° C | 54% | 1014.7 hPa | 0 mm | - | 330 W/m² | - |
| 1788385343 | 23.89° C | 55% | 1014.9 hPa | 0 mm | - | 396 W/m² | - |
| 1788385039 | 24.44° C | 55% | 1014.7 hPa | 0 mm | - | 425 W/m² | - |
| 1788384739 | 24.44° C | 55% | 1014.9 hPa | 0 mm | - | 329 W/m² | - |
| 1788384438 | 25° C | 54% | 1015 hPa | 0 mm | - | 497 W/m² | - |
| 1788384135 | 24.44° C | 56% | 1015.2 hPa | 0 mm | - | 565 W/m² | - |
| 1788383831 | 24.44° C | 57% | 1015.1 hPa | 0 mm | - | 504 W/m² | - |
| 1788383526 | 23.89° C | 56% | 1015.2 hPa | 0 mm | - | 553 W/m² | - |
| 1788383220 | 25° C | 57% | 1015.2 hPa | 0 mm | - | 741 W/m² | - |
| 1788382915 | 24.44° C | 58% | 1015.3 hPa | 0 mm | - | 658 W/m² | - |
| 1788382614 | 24.44° C | 56% | 1015.1 hPa | 0 mm | - | 605 W/m² | - |
| 1788382309 | 24.44° C | 56% | 1015.1 hPa | 0 mm | - | 752 W/m² | - |
| 1788382004 | 23.89° C | 58% | 1015 hPa | 0 mm | - | 775 W/m² | - |
| 1788381698 | 23.89° C | 59% | 1015.2 hPa | 0 mm | - | 634 W/m² | - |
* Rain latest hour (hover to see other rain measurements)
** Current wind speed in m/s (hover to see current wind gust speed)